This is the latest recevied weather packets stored in our database for station/object DK4SDR-10. If no packets are shown the sender has not sent any weather packets the latest 10 day(s).
| Time | Temp. | Humidity | Pressure | Rain* | Wind** | Luminosity | Snow |
|---|---|---|---|---|---|---|---|
| 1777669113 | 19.44° C | 33% | 1024.6 hPa | - | - | - | - |
| 1777668212 | 20° C | 32% | 1024.6 hPa | - | - | - | - |
| 1777666413 | 21.11° C | 31% | 1024.6 hPa | - | - | - | - |
| 1777665513 | 21.67° C | 30% | 1024.5 hPa | - | - | - | - |
| 1777664635 | 22.22° C | 29% | 1024.4 hPa | - | - | - | - |
| 1777663713 | 22.78° C | 28% | 1024.2 hPa | - | - | - | - |
| 1777662813 | 23.33° C | 27% | 1024.2 hPa | - | - | - | - |
| 1777661915 | 24.44° C | 26% | 1024 hPa | - | - | - | - |
| 1777661012 | 25° C | 25% | 1023.9 hPa | - | - | - | - |
| 1777657412 | 28.89° C | 19% | 1023.6 hPa | - | - | - | - |
| 1777656512 | 30° C | 18% | 1023.6 hPa | - | - | - | - |
| 1777655612 | 31.11° C | 18% | 1023.6 hPa | - | - | - | - |
| 1777653813 | 33.89° C | 15% | 1023.8 hPa | - | - | - | - |
| 1777652912 | 35° C | 15% | 1023.9 hPa | - | - | - | - |
| 1777652011 | 36.11° C | 14% | 1023.9 hPa | - | - | - | - |
| 1777651111 | 37.22° C | 13% | 1024.1 hPa | - | - | - | - |
| 1777650211 | 37.78° C | 14% | 1024.1 hPa | - | - | - | - |
| 1777649311 | 38.33° C | 13% | 1024.3 hPa | - | - | - | - |
| 1777648411 | 38.89° C | 12% | 1024.4 hPa | - | - | - | - |
| 1777647510 | 38.89° C | 12% | 1024.4 hPa | - | - | - | - |
| 1777646610 | 39.44° C | 12% | 1024.6 hPa | - | - | - | - |
| 1777645710 | 39.44° C | 13% | 1024.6 hPa | - | - | - | - |
| 1777644810 | 39.44° C | 13% | 1024.8 hPa | - | - | - | - |
| 1777643910 | 38.89° C | 13% | 1024.9 hPa | - | - | - | - |
| 1777643010 | 38.89° C | 13% | 1025.2 hPa | - | - | - | - |
* Rain since midnight (hover to see other rain measurements)
** Current wind speed in m/s (hover to see current wind gust speed)